Погода в Санта-Крус-дель-Киче

Гватемала     15°01′45″N   91°08′59″W
темп.,
°C
ветер,
м/с
пор.,
м/с
влажн.,
%
обл.,
%
осадки,
мм/ч
давл.,
гПа
погр.,
м
22 апреля, чт
чт2200:00+12с019639 0.0 102013
03:00+11ссз119726 0.0 101830
06:00+10зсз019531 0.0 101911
09:00+17св236463 0.0 1018781
12:00+21св3444100 0.0 10151573
15:00+22всв4441100 0.0 10122126
18:00+17всв3574100 0.2 1014316
21:00+13всв1193100 0.6 101834
23 апреля, пт
пт2300:00+12в0198100 0.6 101915
03:00+11зюз1196100 0.0 101820
06:00+10юз118182 0.0 101913
09:00+19всв113223 0.0 1017764
12:00+23всв442218 0.0 10131823
15:00+24всв442596 0.0 10102290
18:00+17вюв2345100 0.0 101358
21:00+13ю228092 0.0 101721
24 апреля, сб
сб2400:00+12ююз229022 0.0 101719
03:00+11ююз228383 0.0 101626
06:00+11ююз2279100 0.0 101734
09:00+19юз1249100 0.0 1016883
12:00+25св223098 0.0 10132093
15:00+24в343186 0.1 10102542
18:00+18ююв246873 0.1 1013177
21:00+15ю118092 0.0 101612
25 апреля, вс
вс2500:00+14всв0185100 0.1 101717
03:00+13сз0191100 0.1 101512
06:00+13зсз119395 0.1 101712
09:00+19ссв235421 0.0 10171129
12:00+24св443515 0.0 10142064
15:00+24св663359 0.0 10112330
18:00+19св365445 0.0 1014341
21:00+14всв11765 0.0 101813
26 апреля, пн
пн2600:00+13з118598 0.0 101711
03:00+12зсз118598 0.0 101611
06:00+11юз118494 0.0 101811
09:00+19св22494 0.0 1017985
12:00+24св44345 0.0 10142008
15:00+25всв44315 0.0 10102251
18:00+20всв365023 0.0 1012228
21:00+15в11787 0.1 101712